This is the latest recevied weather packets stored in our database for station/object 9W2JBV-1. If no packets are shown the sender has not sent any weather packets the latest 10 day(s).
| Time | Temp. | Humidity | Pressure | Rain* | Wind** | Luminosity | Snow |
|---|---|---|---|---|---|---|---|
| 1777629762 | 32.22° C | 61% | 1015.4 hPa | - | - | - | - |
| 1777627362 | 32.22° C | 61% | 1015 hPa | - | - | - | - |
| 1777626169 | 32.22° C | 61% | 1015.1 hPa | - | - | - | - |
| 1777624962 | 32.22° C | 61% | 1015 hPa | - | - | - | - |
| 1777623762 | 32.22° C | 61% | 1015.4 hPa | - | - | - | - |
| 1777622562 | 32.22° C | 61% | 1015.3 hPa | - | - | - | - |
| 1777621362 | 32.22° C | 60% | 1015.2 hPa | - | - | - | - |
| 1777620226 | 32.22° C | 60% | 1015.6 hPa | - | - | - | - |
| 1777620162 | 32.22° C | 60% | 1015.6 hPa | - | - | - | - |
| 1777618961 | 32.78° C | 59% | 1016.1 hPa | - | - | - | - |
| 1777617761 | 32.78° C | 59% | 1016.4 hPa | - | - | - | - |
| 1777616593 | 32.78° C | 59% | 1016.3 hPa | - | - | - | - |
| 1777616561 | 32.78° C | 59% | 1016.3 hPa | - | - | - | - |
| 1777614165 | 32.78° C | 59% | 1017.2 hPa | - | - | - | - |
| 1777612964 | 32.78° C | 59% | 1017.3 hPa | - | - | - | - |
| 1777611764 | 32.78° C | 59% | 1017.2 hPa | - | - | - | - |
| 1777610564 | 32.78° C | 60% | 1017.8 hPa | - | - | - | - |
| 1777609364 | 33.33° C | 59% | 1017.8 hPa | - | - | - | - |
| 1777608164 | 33.89° C | 56% | 1017.7 hPa | - | - | - | - |
| 1777606996 | 33.89° C | 54% | 1018.1 hPa | - | - | - | - |
| 1777606964 | 33.89° C | 54% | 1018.1 hPa | - | - | - | - |
| 1777605771 | 33.89° C | 55% | 1018.5 hPa | - | - | - | - |
| 1777604564 | 33.33° C | 56% | 1018.4 hPa | - | - | - | - |
| 1777603364 | 33.33° C | 58% | 1018.5 hPa | - | - | - | - |
| 1777602164 | 33.33° C | 59% | 1018.2 hPa | - | - | - | - |
* Rain since midnight (hover to see other rain measurements)
** Current wind speed in m/s (hover to see current wind gust speed)